TimeCEST,TemperatureF,Dew PointF,Humidity,Sea Level PressureIn,VisibilityMPH,Wind Direction,Wind SpeedMPH,Gust SpeedMPH,PrecipitationIn,Events,Conditions,WindDirDegrees,DateUTC
12:20 AM,60.8,41.0,48,30.18,-9999.0,Calm,Calm,-,N/A,,Clear,0,2013-07-19 22:20:00
12:50 AM,59.0,42.8,55,30.18,-9999.0,SW,2.3,-,N/A,,Clear,220,2013-07-19 22:50:00
1:20 AM,60.8,41.0,48,30.18,-9999.0,SE,3.5,-,N/A,,Clear,130,2013-07-19 23:20:00
1:50 AM,59.0,41.0,51,30.18,-9999.0,Calm,Calm,-,N/A,,Clear,0,2013-07-19 23:50:00
2:00 AM,58,42,43,,47,SE,2.2,,,,Partly Cloudy,130,2013-07-20 00:00:00
2:20 AM,59.0,44.6,59,30.18,-9999.0,North,1.2,-,N/A,,Clear,350,2013-07-20 00:20:00
2:50 AM,57.2,46.4,67,30.18,-9999.0,Calm,Calm,-,N/A,,Clear,0,2013-07-20 00:50:00
3:20 AM,55.4,44.6,67,30.15,-9999.0,Variable,2.3,-,N/A,,Clear,0,2013-07-20 01:20:00
3:50 AM,55.4,46.4,72,30.15,-9999.0,Calm,Calm,-,N/A,,Clear,0,2013-07-20 01:50:00
4:20 AM,55.4,46.4,72,30.15,-9999.0,Variable,2.3,-,N/A,,Clear,0,2013-07-20 02:20:00
4:50 AM,55.4,44.6,67,30.15,-9999.0,Variable,2.3,-,N/A,,Clear,0,2013-07-20 02:50:00
5:20 AM,55.4,44.6,67,30.15,-9999.0,Calm,Calm,-,N/A,,Clear,0,2013-07-20 03:20:00
5:50 AM,55.4,44.6,67,30.15,-9999.0,NE,3.5,-,N/A,,Clear,50,2013-07-20 03:50:00
6:20 AM,53.6,46.4,77,30.15,-9999.0,East,3.5,-,N/A,,Clear,90,2013-07-20 04:20:00
6:50 AM,59.0,44.6,59,30.15,-9999.0,Variable,2.3,-,N/A,,Clear,0,2013-07-20 04:50:00
7:20 AM,59.0,44.6,59,30.15,-9999.0,Variable,2.3,-,N/A,,Clear,0,2013-07-20 05:20:00
7:50 AM,60.8,44.6,55,30.15,-9999.0,SSW,4.6,-,N/A,,Clear,210,2013-07-20 05:50:00
8:00 AM,61,44,43,,44,South,6.7,,,,Partly Cloudy,190,2013-07-20 06:00:00
8:20 AM,62.6,46.4,55,30.15,-9999.0,SSW,4.6,-,N/A,,Clear,210,2013-07-20 06:20:00
8:50 AM,64.4,46.4,52,30.15,-9999.0,SW,3.5,-,N/A,,Clear,220,2013-07-20 06:50:00
9:20 AM,66.2,46.4,49,30.15,-9999.0,SSW,3.5,-,N/A,,Clear,210,2013-07-20 07:20:00
9:50 AM,68.0,48.2,49,30.15,-9999.0,South,3.5,-,N/A,,Clear,190,2013-07-20 07:50:00
10:20 AM,68.0,48.2,49,30.15,-9999.0,Variable,3.5,-,N/A,,Clear,0,2013-07-20 08:20:00
10:50 AM,71.6,48.2,43,30.15,-9999.0,Variable,3.5,-,N/A,,Clear,0,2013-07-20 08:50:00
11:20 AM,73.4,50.0,44,30.15,-9999.0,North,6.9,-,N/A,,Clear,10,2013-07-20 09:20:00
11:50 AM,73.4,50.0,44,30.15,-9999.0,Variable,4.6,-,N/A,,Clear,0,2013-07-20 09:50:00
12:20 PM,73.4,50.0,44,30.15,-9999.0,Variable,4.6,-,N/A,,Clear,0,2013-07-20 10:20:00
12:50 PM,75.2,50.0,41,30.15,-9999.0,South,4.6,-,N/A,,Clear,170,2013-07-20 10:50:00
1:20 PM,75.2,51.8,44,30.15,-9999.0,Variable,3.5,-,N/A,,Clear,0,2013-07-20 11:20:00
1:50 PM,77.0,51.8,41,30.15,-9999.0,Variable,4.6,-,N/A,,Clear,0,2013-07-20 11:50:00
2:00 PM,76,51,31,,44,SSW,6.7,,,,Partly Cloudy,200,2013-07-20 12:00:00
2:20 PM,77.0,51.8,41,30.12,-9999.0,Variable,6.9,-,N/A,,Clear,0,2013-07-20 12:20:00
2:50 PM,78.8,50.0,36,30.12,-9999.0,Variable,4.6,-,N/A,,Clear,0,2013-07-20 12:50:00
3:20 PM,78.8,50.0,36,30.09,-9999.0,West,4.6,-,N/A,,Clear,260,2013-07-20 13:20:00
3:50 PM,78.8,48.2,34,30.09,-9999.0,South,8.1,-,N/A,,Clear,170,2013-07-20 13:50:00
4:20 PM,80.6,48.2,32,30.09,-9999.0,South,8.1,-,N/A,,Clear,190,2013-07-20 14:20:00
4:50 PM,80.6,48.2,32,30.09,-9999.0,South,6.9,-,N/A,,Clear,170,2013-07-20 14:50:00
5:20 PM,82.4,44.6,26,30.09,-9999.0,Variable,5.8,-,N/A,,Clear,0,2013-07-20 15:20:00
5:50 PM,82.4,46.4,28,30.06,-9999.0,Variable,5.8,-,N/A,,Clear,0,2013-07-20 15:50:00
6:20 PM,84.2,46.4,27,30.06,-9999.0,West,6.9,-,N/A,,Clear,260,2013-07-20 16:20:00
7:20 PM,82.4,46.4,28,30.06,-9999.0,WSW,4.6,-,N/A,,Clear,250,2013-07-20 17:20:00
7:50 PM,80.6,50.0,34,30.06,-9999.0,SW,9.2,-,N/A,,Clear,220,2013-07-20 17:50:00
8:00 PM,80,52,27,,47,SW,11.2,,,,Partly Cloudy,220,2013-07-20 18:00:00
8:20 PM,78.8,51.8,39,30.06,-9999.0,SW,10.4,-,N/A,,Clear,220,2013-07-20 18:20:00
8:50 PM,77.0,51.8,41,30.06,-9999.0,SW,8.1,-,N/A,,Clear,230,2013-07-20 18:50:00
9:20 PM,75.2,53.6,47,30.06,-9999.0,SW,5.8,-,N/A,,Clear,230,2013-07-20 19:20:00
9:50 PM,73.4,53.6,50,30.06,-9999.0,SW,5.8,-,N/A,,Clear,230,2013-07-20 19:50:00
10:20 PM,71.6,50.0,46,30.06,-9999.0,WSW,4.6,-,N/A,,Clear,240,2013-07-20 20:20:00
10:50 PM,71.6,46.4,41,30.06,-9999.0,NW,4.6,-,N/A,,Clear,320,2013-07-20 20:50:00
11:20 PM,71.6,42.8,35,30.09,-9999.0,North,4.6,-,N/A,,Clear,350,2013-07-20 21:20:00
11:50 PM,68.0,44.6,43,30.09,-9999.0,North,8.1,-,N/A,,Clear,350,2013-07-20 21:50:00